METEOR 2-6 DEB, 31406

Orbit data source: Space-Track

METEOR 2-6 DEB, 31406 is space debris in LEO originally from a launch on Tue, 09 Sep 1980 UTC launched from the Plesetsk Missile And Space Complex (PKMTR). Debris objects in space refer to the collection of defunct objects orbiting the Earth. Examples of debris include non-operational satellites, rocket bodies, and fragments generated from explosions, collisions, or faulty payload assembly.

Loading next visibility...
Identifier
31406, 1980-073H
Orbit
LEO
Country
Flag of CISCIS
Related business
Manufacturer
Unknown
Mission
Spacecraft
Bus & Motor
Unknown
Mass
Unknown
Launch date (UTC)
1980-09-09 (45 years ago)
Launch vehicle
Unknown
Launch site
Plesetsk Missile And Space Complex (PKMTR)
Object type
Payload
Rocket body
Debris
Shape & HBR
Unknown shape, 0.1 m
Radar Cross Section
Small (<0.1 m²)

Expand to show TLE details & history
Last TLE update: 4 days ago

TLE from 4 days ago
0 METEOR 2-6 DEB
1 31406U 80073H   25348.74005258  .00008323  00000-0  22985-2 0  9999
2 31406  81.2137 150.8712 0037972 340.6928  19.2821 14.46269058 81043
Epoch: 2025-12-14T17:45Z
TLE epoch observation values (Epoch: 2025-12-14T17:45:40.542Z)
Latitude
-0.00007°
Longitude
160.80363°
Altitude
715.309 km
Speed
7.511 km/s
True Right ascension
10h 03m 29s
True Declination
0° 00' 00"
Sunlit
Object was in daylight at epoch
Visualization orbit readout
Latitude
Unknown
Longitude
Unknown
Altitude
Unknown
Speed
Unknown
Apparent Right ascension
Unknown
Apparent Declination
Unknown
Sunlit
N/A
Visualization observer readout
Local Sidereal Time
06:22:19
Azimuth
Unknown
Elevation
Unknown
Doppler factor
Unknown
Orbital elements
Apogee altitude
761.998 km
Perigee altitude
707.978 km
Semi-major axis
7,113.125 km
Eccentricity
0.0038
Inclination
81.2137°
RAAN
150.8712°
Arg. of periapsis
340.6928°
True anomaly
19.42643°
Mean anomaly
19.2821°
Eccentric anomaly
19.3542°
Mean motion
3.61787 °/min
Orbital period
99.51 mins
BSTAR
0.0022985
Loading maneuver chart data...
Computing Atmospheric mass density...
Loading historical data...
Loading historical data...
Loading historical data...
Loading historical data...
Loading historical data...
Loading historical data...
Loading historical data...

Documentation

Showing up to 5 results
|